Location: Bonaustraße
(48.4603°N, 11.9280°E)
Time: 21:27:23
(UTC+02:00)

AO-92 - Pass Details

Date: 31 July 2021
Orbit: 484 x 494 km, 97.4° (Epoch: 17 September)

Event Time Altitude Azimuth Distance (km) Brightness Sun altitude
Exits shadow 23:13:15 41° 186° (S) 714 ? -17.9°
Maximum altitude 23:14:21 71° 258° (WSW) 517 ? -18.0°
Drops below altitude 10° 23:17:57 10° 343° (NNW) 1,678 ? -18.3°
Sets 23:20:02 0° 346° (NNW) 2,564 ? -18.4°
